Location: Bieujac
(44.5398°N, 0.1549°W)
Time: 22:02:54
(UTC+00:00)

PAYLOAD B - Pass Details

Date: 17 November 2019
Orbit: 848 x 872 km, 99.1° (Epoch: 14 December)

Event Time Altitude Azimuth Distance (km) Brightness Sun altitude
Rises 05:48:11 0° 11° (NNE) 3,428 7.3 -12.7°
Reaches altitude 10° 05:50:35 10° 9° (N) 2,486 6.6 -12.3°
Maximum altitude 05:56:01 65° 289° (WNW) 935 4.2 -11.3°
Drops below altitude 10° 06:01:26 10° 209° (SSW) 2,468 6.5 -10.4°
Sets 06:03:48 0° 206° (SSW) 3,401 7.3 -10.0°
